• Processing (Info)

  • MPEC 2010-V97 : 2010 VA72

    The following Minor Planet Electronic Circular may be linked-to from your own Web pages, but must not otherwise be redistributed electronically.

    A form allowing access to any MPEC is at the bottom of this page.


    Read MPEC 2010-V96 Read MPEC 2010-V98


    M.P.E.C. 2010-V97                                Issued 2010 Nov.  9, 13:51 UT
    
         The Minor Planet Electronic Circulars contain information on unusual
             minor planets and routine data on comets.  They are published
       on behalf of Commission 20 of the International Astronomical Union by the
              Minor Planet Center, Smithsonian Astrophysical Observatory,
                              Cambridge, MA 02138, U.S.A.
    
                 Prepared using the Tamkin Foundation Computer Network
    
                                  MPC@CFA.HARVARD.EDU
           URL https://www.minorplanetcenter.org/iau/mpc.html  ISSN 1523-6714
    
                                       2010 VA72
    
    Observations:
         K10V72A* C2010 11 08.36955 04 27 50.25 +13 07 49.3          19.7 V EV097G96
         K10V72A  C2010 11 08.37593 04 27 50.07 +13 08 03.5          19.5 V EV097G96
         K10V72A  C2010 11 08.38223 04 27 49.82 +13 08 16.9          20.3 V EV097G96
         K10V72A  C2010 11 08.38865 04 27 49.60 +13 08 30.8          20.7 V EV097G96
         K10V72A  C2010 11 08.46403 04 27 47.15 +13 11 13.0          20.6 V EV097G96
         K10V72A  C2010 11 08.48025 04 27 46.71 +13 11 47.7          20.6 V EV097G96
         K10V72A  C2010 11 08.48068 04 27 46.64 +13 11 47.0          20.8 R EV097H01
         K10V72A  C2010 11 08.48721 04 27 46.47 +13 12 00.9          20.1 R EV097H01
         K10V72A  C2010 11 08.48843 04 27 46.53 +13 12 05.4          19.8 V EV097G96
         K10V72A  C2010 11 08.49427 04 27 46.28 +13 12 15.8          20.2 R EV097H01
         K10V72A  C2010 11 08.50529 04 27 46.00 +13 12 39.2          20.3 R EV097H01
         K10V72A 7C2010 11 08.53071 04 27 47.19 +13 13 49.3          21.1 R EV097F65
         K10V72A 7C2010 11 08.53199 04 27 47.16 +13 13 52.3          20.9 R EV097F65
         K10V72A 7C2010 11 08.53326 04 27 47.14 +13 13 55.3          20.7 R EV097F65
         K10V72A KC2010 11 09.34849704 27 34.55 +13 42 22.3          19.9 V EV097H21
         K10V72A KC2010 11 09.35085804 27 34.44 +13 42 27.0          20.0 V EV097H21
         K10V72A IC2010 11 09.35264404 27 34.45 +13 42 31.4          20.3 V EV097H21
         K10V72A KC2010 11 09.40761 04 27 33.09 +13 44 23.8          20.7 R EV097H36
         K10V72A KC2010 11 09.43267 04 27 32.26 +13 45 14.9          20.7 R EV097H36
    
    Observer details:
    F65 Haleakala-Faulkes Telescope North.  Observers P. Miller, P. Roche,
        A. Tripp, R. Miles, S. Foglia.  Measurer S. Foglia.  2.0-m f/10.0
        Ritchey-Chretien + CCD.
    G96 Mt. Lemmon Survey.  Observer S. M. Larson.  Measurers J. D. Ahern,
        E. C. Beshore, A. Boattini, G. J. Garradd, A. R. Gibbs, A. D. Grauer,
        R. E. Hill, R. A. Kowalski, S. M. Larson, R. H. McNaught.  1.5-m reflector
        + CCD.
    H01 Magdalena Ridge Observatory, Socorro.  Observers W. H. Ryan, E. V. Ryan.
        Measurer W. H. Ryan.  2.4-m f/8.9 reflector + CCD.
    H21 Astronomical Research Observatory, Westfield.  Observer R. Holmes.
        Measurers S. Foglia, T. Vorobjov.  0.61-m f/4.0 astrograph + CCD.
    H36 Sandlot Observatory, Scranton.  Observer G. Hug.  0.56-m reflector + CCD.
    
    Orbital elements:
    2010 VA72                                                Earth MOID = 0.0582 AU
    Epoch 2010 July 23.0 TT = JDT 2455400.5                 MPC
    M 343.46655              (2000.0)            P               Q
    n   0.24187227     Peri.  294.62111     +0.99595642     -0.06919408
    a   2.5512049      Node    69.38860     +0.08684238     +0.90483921
    e   0.5996748      Incl.    3.50960     -0.02300466     +0.42009307
    P   4.07           H   23.1           G   0.15           U   9
    Residuals in seconds of arc
    101108 G96  0.8+  0.0     101108 H01  0.7+  0.3+    101109 H21  0.1+  0.1-
    101108 G96  1.2+  0.3+    101108 G96  0.8+  0.4+    101109 H21  0.4-  0.2-
    101108 G96  0.6+  0.0     101108 H01  0.7+  0.2+    101109 H21  0.6+  0.5+
    101108 G96  0.5+  0.1-    101108 H01  0.7+  0.3+    101109 H36  1.7+  0.1-
    101108 G96  0.4-  0.1-    101108 F65  0.5+  0.4-    101109 H36  0.7+  0.3+
    101108 G96  0.0   0.1+    101108 F65  0.7+  0.1-
    101108 H01  0.6+  0.2+    101108 F65  1.1+  0.2+
    
    Ephemeris:
    2010 VA72                a,e,i = 2.55, 0.60, 4                   q = 1.0213
    Date    TT    R. A. (2000) Decl.     Delta      r     Elong.  Phase     V
    2010 11 10    04 27.40   +14 04.7    0.175    1.155   158.6    18.2    20.6
    2010 11 11    04 27.09   +14 37.0    0.180    1.161   159.7    17.2    20.6
    2010 11 12    04 26.74   +15 07.6    0.185    1.167   160.9    16.2    20.6
    2010 11 13    04 26.36   +15 36.5    0.191    1.173   162.0    15.1    20.7
    2010 11 14    04 25.97   +16 03.9    0.196    1.179   163.1    14.1    20.7
    2010 11 15    04 25.55   +16 29.9    0.202    1.185   164.2    13.1    20.8
    2010 11 16    04 25.11   +16 54.5    0.208    1.191   165.3    12.1    20.8
    2010 11 17    04 24.67   +17 17.8    0.214    1.198   166.5    11.1    20.8
    2010 11 18    04 24.21   +17 40.0    0.220    1.204   167.6    10.2    20.9
    2010 11 19    04 23.75   +18 01.1    0.226    1.211   168.7     9.2    20.9
    2010 11 20    04 23.28   +18 21.0    0.232    1.217   169.8     8.3    20.9
    2010 11 21    04 22.81   +18 40.0    0.238    1.224   170.9     7.3    21.0
    2010 11 22    04 22.34   +18 58.1    0.245    1.231   172.0     6.4    21.0
    2010 11 23    04 21.88   +19 15.2    0.251    1.237   173.1     5.5    21.0
    2010 11 24    04 21.42   +19 31.5    0.258    1.244   174.3     4.6    21.0
    2010 11 25    04 20.97   +19 47.0    0.265    1.251   175.4     3.7    21.0
    2010 11 26    04 20.52   +20 01.8    0.272    1.258   176.4     2.8    21.1
    2010 11 27    04 20.09   +20 15.9    0.279    1.265   177.5     1.9    21.1
    2010 11 28    04 19.68   +20 29.2    0.286    1.272   178.5     1.1    21.1
    2010 11 29    04 19.27   +20 42.0    0.293    1.279   179.3     0.5    21.1
    2010 11 30    04 18.89   +20 54.1    0.300    1.287   178.9     0.9    21.2
    
    Timothy B. Spahr             (C) Copyright 2010 MPC           M.P.E.C. 2010-V97
    

    Read MPEC 2010-V96 Read MPEC 2010-V98


    MPEC number:

    Enter an MPEC number in one of the following forms:

    • 1997-B01 (the full form)
    • J97B01 (the packed version of the full form)
    • B01 (the abbreviated form)